Location: Proctor
(47.8934°N, 114.3048°W)
Time: 16:57:34
(UTC+00:00)

Courier 1B Rocket - Pass Details

Date: 19 June 2024
Orbit: 920 x 1201 km, 28.2° (Epoch: 16 July)

Event Time Altitude Azimuth Distance (km) Brightness Sun altitude
Rises 12:09:14 0° 224° (SW) 3,809 7.4 3.5°
Reaches altitude 10° 12:13:22 10° 201° (SSW) 2,919 7.1 4.1°
Maximum altitude 12:16:55 14° 171° (S) 2,655 7.1 4.6°
Drops below altitude 10° 12:20:35 10° 141° (SE) 3,021 7.7 5.1°
Sets 12:25:00 0° 119° (ESE) 4,032 8.7 5.8°
